FW8327 Weather Reports


Display with metric or nautical units.
time (UTC)temp
F
wind
direction
speed
MPH
gust
MPH
rain 1hr
in
rain 24hr
in
rain mn
in
humidity
%
barometer
mb
20260503013553 44 167 0.0 0.0 0.00 0.00 0.00 61 1016.4
20260503013050 43 167 0.0 0.0 0.00 0.00 0.00 64 1016.2
20260503012548 43 167 0.0 0.0 0.00 0.00 0.00 66 1016.2
20260503012044 44 167 0.0 0.0 0.00 0.00 0.00 67 1016.3
20260503011540 44 167 0.0 0.0 0.00 0.00 0.00 68 1016.2
20260503011038 44 182 0.0 0.0 0.00 0.00 0.00 66 1016.3
20260503010534 44 183 0.0 0.0 0.00 0.00 0.00 66 1016.4
20260503010032 44 183 0.0 0.0 0.00 0.00 0.00 66 1016.3
20260503005528 45 184 0.0 0.0 0.00 0.00 0.00 66 1016.3
20260503005026 46 214 0.0 0.0 0.00 0.00 0.00 60 1016.2
20260503004522 47 218 0.0 0.0 0.00 0.00 0.00 58 1016.2
20260503004020 47 263 0.0 0.0 0.00 0.00 0.00 58 1016.2
20260503003516 47 228 0.0 0.0 0.00 0.00 0.00 57 1015.9
20260503003014 48 271 0.0 0.0 0.00 0.00 0.00 56 1016.2
20260503002511 48 274 0.0 0.0 0.00 0.00 0.00 54 1016.0
20260503002007 49 229 0.0 0.0 0.00 0.00 0.00 51 1016.3
20260503001504 50 290 0.0 0.0 0.00 0.00 0.00 48 1016.0
20260503001001 50 307 0.0 0.0 0.00 0.00 0.00 47 1015.9
20260503000459 50 300 1.0 2.0 0.00 0.00 0.00 45 1016.1
20260502235956 50 321 1.0 1.0 0.00 0.00 0.00 46 1015.9
20260502235452 50 308 0.0 1.0 0.00 0.00 0.00 46 1016.1
20260502234950 50 306 1.0 2.0 0.00 0.00 0.00 43 1015.8
20260502234446 51 306 2.0 2.0 0.00 0.00 0.00 44 1016.0
20260502233944 51 301 2.0 2.0 0.00 0.00 0.00 42 1015.8
20260502233438 51 312 2.0 3.0 0.00 0.00 0.00 44 1015.7
20260502232936 51 316 2.0 2.0 0.00 0.00 0.00 45 1015.9
20260502232432 51 287 2.0 2.0 0.00 0.00 0.00 42 1015.8
20260502231929 51 347 0.0 0.0 0.00 0.00 0.00 46 1015.8
20260502231426 51 268 0.0 0.0 0.00 0.00 0.00 44 1015.9
20260502230924 51 283 2.0 3.0 0.00 0.00 0.00 42 1015.9
20260502230417 51 286 2.0 3.0 0.00 0.00 0.00 44 1015.9
20260502225915 52 298 5.0 11.0 0.00 0.00 0.00 44 1015.9
20260502225411 52 283 6.0 10.0 0.00 0.00 0.00 42 1015.9
20260502224908 51 297 4.0 7.0 0.00 0.00 0.00 40 1015.9
20260502224403 51 344 2.0 2.0 0.00 0.00 0.00 42 1016.0
20260502223901 51 332 0.0 0.0 0.00 0.00 0.00 41 1016.0
20260502223359 50 287 2.0 2.0 0.00 0.00 0.00 44 1016.2
20260502222856 51 307 2.0 2.0 0.00 0.00 0.00 42 1016.2
20260502222354 51 290 2.0 3.0 0.00 0.00 0.00 45 1016.0
20260502221849 52 300 2.0 2.0 0.00 0.00 0.00 44 1016.0
20260502221346 52 272 3.0 4.0 0.00 0.00 0.00 44 1016.0
20260502220843 52 277 3.0 4.0 0.00 0.00 0.00 44 1016.0
20260502220339 51 298 2.0 2.0 0.00 0.00 0.00 44 1015.8
20260502215835 51 306 2.0 3.0 0.00 0.00 0.00 43 1015.7
20260502215333 51 299 2.0 2.0 0.00 0.00 0.00 47 1016.0
20260502214830 51 218 2.0 2.0 0.00 0.00 0.00 47 1015.8
20260502214326 51 284 2.0 3.0 0.00 0.00 0.00 43 1016.0
20260502213824 51 297 2.0 3.0 0.00 0.00 0.00 45 1016.0
20260502213321 52 307 2.0 2.0 0.00 0.00 0.00 43 1015.9
20260502212819 50 252 1.0 2.0 0.00 0.00 0.00 48 1016.1
20260502212317 51 301 2.0 2.0 0.00 0.00 0.00 45 1015.9
20260502211814 51 307 3.0 3.0 0.00 0.00 0.00 46 1016.0
20260502211309 51 270 2.0 3.0 0.00 0.00 0.00 46 1015.9
20260502210807 51 270 5.0 9.0 0.00 0.00 0.00 46 1016.0
20260502210305 51 277 2.0 3.0 0.00 0.00 0.00 50 1016.0
20260502205802 51 287 4.0 7.0 0.00 0.00 0.00 46 1016.1
20260502205257 51 302 2.0 2.0 0.00 0.00 0.00 48 1016.1
20260502204755 51 300 2.0 2.0 0.00 0.00 0.00 47 1016.1
20260502204252 50 320 2.0 2.0 0.00 0.00 0.00 46 1016.4
20260502203749 50 293 2.0 3.0 0.00 0.00 0.00 50 1016.1
20260502203247 50 300 0.0 0.0 0.00 0.00 0.00 47 1016.1
20260502202741 50 314 2.0 3.0 0.00 0.00 0.00 49 1016.1
20260502202240 50 292 3.0 3.0 0.00 0.00 0.00 48 1016.4
20260502201737 50 286 2.0 2.0 0.00 0.00 0.00 47 1016.3
20260502201233 50 287 2.0 2.0 0.00 0.00 0.00 49 1016.4
20260502200729 49 279 0.0 1.0 0.00 0.00 0.00 48 1016.4
20260502200226 50 313 6.0 9.0 0.00 0.00 0.00 49 1016.5
20260502195724 50 266 2.0 3.0 0.00 0.00 0.00 49 1016.5
20260502195221 49 306 1.0 2.0 0.00 0.00 0.00 52 1016.6
20260502194717 50 313 2.0 2.0 0.00 0.00 0.00 48 1016.6
20260502194214 49 299 2.0 2.0 0.00 0.00 0.00 48 1016.8
20260502193710 50 277 4.0 7.0 0.00 0.00 0.00 48 1016.8
20260502193208 50 313 1.0 2.0 0.00 0.00 0.00 48 1016.8
20260502192702 49 283 1.0 2.0 0.00 0.00 0.00 53 1016.9
20260502192200 48 305 0.0 0.0 0.00 0.00 0.00 50 1016.5
20260502191657 50 311 1.0 2.0 0.00 0.00 0.00 50 1016.7
20260502191154 49 311 2.0 4.0 0.00 0.00 0.00 51 1016.9
20260502190652 49 315 2.0 3.0 0.00 0.00 0.00 52 1016.8
20260502190144 49 278 1.0 2.0 0.00 0.00 0.00 50 1017.1
20260502185638 49 275 4.0 7.0 0.00 0.00 0.00 50 1017.0
20260502185136 49 297 3.0 4.0 0.00 0.00 0.00 54 1017.0
20260502184632 49 315 1.0 2.0 0.00 0.00 0.00 51 1017.0
20260502184127 49 277 2.0 2.0 0.00 0.00 0.00 52 1017.0
20260502183624 49 320 0.0 0.0 0.00 0.00 0.00 54 1017.2
20260502183120 49 315 1.0 2.0 0.00 0.00 0.00 52 1017.2
20260502182615 48 356 1.0 1.0 0.00 0.00 0.00 57 1017.0
20260502182111 49 299 1.0 2.0 0.00 0.00 0.00 51 1017.3
20260502181609 48 334 2.0 3.0 0.00 0.00 0.00 53 1017.2
20260502181108 47 261 1.0 2.0 0.00 0.00 0.00 54 1017.3
20260502180605 47 338 5.0 10.0 0.00 0.00 0.00 56 1017.2
20260502164007 46 317 0.0 2.0 0.00 0.00 0.00 59 1017.9
20260502163502 47 307 0.0 0.0 0.00 0.00 0.00 56 1017.9
20260502163000 46 317 1.0 2.0 0.00 0.00 0.00 57 1018.0
20260502162457 47 329 2.0 3.0 0.00 0.00 0.00 57 1018.0
20260502161954 46 280 0.0 0.0 0.00 0.00 0.00 58 1018.1
20260502161450 47 331 2.0 3.0 0.00 0.00 0.00 59 1018.0
20260502160949 46 269 0.0 0.0 0.00 0.00 0.00 57 1018.1
20260502160446 46 355 0.0 0.0 0.00 0.00 0.00 57 1018.3
20260502151935 45 47 0.0 0.0 0.00 0.00 0.00 59 1018.2
20260502151431 44 22 0.0 0.0 0.00 0.00 0.00 60 1018.1
20260502150929 45 339 1.0 2.0 0.00 0.00 0.00 66 1017.9
20260502150426 44 48 0.0 0.0 0.00 0.00 0.00 63 1018.1
20260502130312 40 17 0.0 0.0 0.00 0.00 0.00 70 1017.8
20260502123757 40 337 0.0 0.0 0.00 0.00 0.00 73 1017.4
20260502123254 39 359 0.0 1.0 0.00 0.00 0.00 73 1017.6
20260502122750 39 7 0.0 0.0 0.00 0.00 0.00 74 1017.3
20260502122247 38 14 0.0 0.0 0.00 0.00 0.00 73 1017.3
20260502121745 38 113 0.0 0.0 0.00 0.00 0.00 76 1017.3
20260502121243 37 103 0.0 0.0 0.00 0.00 0.00 77 1017.4
20260502120739 37 71 0.0 0.0 0.00 0.00 0.00 78 1017.2
20260502120236 36 12 0.0 0.0 0.00 0.00 0.00 80 1017.3
20260502115734 36 208 0.0 0.0 0.00 0.00 0.00 84 1017.2
20260502115230 35 358 0.0 0.0 0.00 0.00 0.00 88 1017.1
20260502114726 35 164 0.0 0.0 0.00 0.00 0.00 91 1017.0
20260502114224 34 144 0.0 0.0 0.00 0.00 0.00 92 1017.0
20260502113720 34 131 0.0 0.0 0.00 0.00 0.00 92 1017.0
20260502113218 33 131 0.0 0.0 0.00 0.00 0.00 92 1017.0
20260502112716 33 131 0.0 0.0 0.00 0.00 0.00 91 1016.7
20260502112214 33 131 0.0 0.0 0.00 0.00 0.00 90 1016.9
20260502111710 33 131 0.0 0.0 0.00 0.00 0.00 90 1016.9
20260502111208 33 131 0.0 0.0 0.00 0.00 0.00 89 1016.8
20260502110706 33 131 0.0 0.0 0.00 0.00 0.00 87 1016.9
20260502110203 32 131 0.0 0.0 0.00 0.00 0.00 86 1016.9
20260502105700 32 132 0.0 0.0 0.00 0.00 0.00 84 1016.8
20260502105157 32 132 0.0 0.0 0.00 0.00 0.00 83 1016.8
20260502104654 33 132 0.0 0.0 0.00 0.00 0.00 84 1016.9
20260502104152 33 132 0.0 0.0 0.00 0.00 0.00 85 1016.8
20260502103649 33 132 0.0 0.0 0.00 0.00 0.00 85 1016.8
20260502103147 34 132 0.0 0.0 0.00 0.00 0.00 85 1016.8
20260502102644 34 129 0.0 0.0 0.00 0.00 0.00 85 1016.5
20260502102140 35 128 0.0 0.0 0.00 0.00 0.00 84 1016.6
20260502101638 35 128 0.0 0.0 0.00 0.00 0.00 83 1016.4
20260502101137 35 128 0.0 0.0 0.00 0.00 0.00 84 1016.6
20260502100635 35 128 0.0 0.0 0.00 0.00 0.00 84 1016.5
20260502100133 35 128 0.0 0.0 0.00 0.00 0.00 84 1016.8
20260502091107 38 69 0.0 0.0 0.00 0.00 0.00 75 1016.6
20260502090604 38 21 0.0 0.0 0.00 0.00 0.00 75 1016.3
20260502071458 38 128 0.0 0.0 0.00 0.00 0.00 84 1016.4
20260502070956 39 128 0.0 0.0 0.00 0.00 0.00 83 1016.5
20260502070454 38 126 0.0 0.0 0.00 0.00 0.00 83 1016.5
20260502065952 38 126 0.0 0.0 0.00 0.00 0.00 84 1016.5
20260502065450 39 124 0.0 0.0 0.00 0.00 0.00 83 1016.5
20260502064948 39 123 0.0 0.0 0.00 0.00 0.00 83 1016.4
20260502064445 39 122 0.0 0.0 0.00 0.00 0.00 82 1016.3
20260502063942 40 121 0.0 0.0 0.00 0.00 0.00 81 1016.5
20260502063440 40 67 0.0 0.0 0.00 0.00 0.00 80 1016.7
20260502062938 40 103 0.0 0.0 0.00 0.00 0.00 81 1016.4
20260502062434 40 112 0.0 0.0 0.00 0.00 0.00 81 1016.5
20260502061933 41 107 0.0 0.0 0.00 0.00 0.00 80 1016.6
20260502061431 41 2 0.0 0.0 0.00 0.00 0.00 79 1016.8
20260502060927 41 94 0.0 0.0 0.00 0.00 0.00 79 1016.6
20260502060422 41 9 0.0 0.0 0.00 0.00 0.00 79 1016.6
20260502055919 40 329 0.0 0.0 0.00 0.00 0.00 80 1016.6
20260502055417 41 88 0.0 0.0 0.00 0.00 0.00 79 1016.6
20260502054912 41 59 0.0 0.0 0.00 0.00 0.00 78 1016.7
20260502054409 41 117 0.0 0.0 0.00 0.00 0.00 77 1016.6
20260502053906 41 99 0.0 0.0 0.00 0.00 0.00 78 1016.6
20260502053403 41 338 0.0 0.0 0.00 0.00 0.00 77 1016.6
20260502052901 41 22 0.0 0.0 0.00 0.00 0.00 78 1016.6
20260502052359 41 44 0.0 0.0 0.00 0.00 0.00 79 1016.8
20260502051856 41 10 0.0 0.0 0.00 0.00 0.00 79 1016.7
20260502051355 41 121 0.0 0.0 0.00 0.00 0.00 79 1016.8
20260502050851 41 83 0.0 0.0 0.00 0.00 0.00 79 1016.7
20260502050347 41 119 0.0 0.0 0.00 0.00 0.00 78 1016.7
20260502045844 42 58 0.0 0.0 0.00 0.00 0.00 78 1016.7
20260502045341 42 17 0.0 0.0 0.00 0.00 0.00 76 1016.7
20260502044838 42 339 0.0 0.0 0.00 0.00 0.00 77 1016.7
20260502044334 42 48 0.0 0.0 0.00 0.00 0.00 77 1016.5
20260502043831 42 11 0.0 0.0 0.00 0.00 0.00 76 1016.6
20260502043329 43 39 0.0 0.0 0.00 0.00 0.00 76 1016.8
20260502042829 43 354 0.0 0.0 0.00 0.00 0.00 74 1016.6
20260502042326 42 25 0.0 1.0 0.00 0.00 0.00 76 1016.5
20260502041823 43 65 0.0 0.0 0.00 0.00 0.00 78 1016.8
20260502041320 43 65 0.0 0.0 0.00 0.00 0.00 77 1016.8
20260502040818 43 14 0.0 0.0 0.00 0.00 0.00 77 1016.7
20260502040315 43 24 0.0 0.0 0.00 0.00 0.00 77 1016.6
20260502035810 43 0 0.0 0.0 0.00 0.00 0.00 77 1016.7
20260502035307 43 6 0.0 0.0 0.00 0.00 0.00 78 1016.8
20260502034805 43 348 0.0 0.0 0.00 0.00 0.00 78 1016.7
20260502034303 43 108 0.0 0.0 0.00 0.00 0.00 79 1016.9
20260502033801 43 93 0.0 0.0 0.00 0.00 0.00 78 1016.8
20260502033258 43 93 0.0 0.0 0.00 0.00 0.00 77 1017.0
20260502032755 43 106 0.0 0.0 0.00 0.00 0.00 77 1016.8
20260502032251 43 117 0.0 0.0 0.00 0.00 0.00 77 1016.9
20260502031749 43 116 0.0 0.0 0.00 0.00 0.00 79 1016.8
20260502031247 43 116 0.0 0.0 0.00 0.00 0.00 78 1016.8
20260502030745 43 107 0.0 0.0 0.00 0.00 0.00 77 1016.6
20260502030243 43 104 0.0 0.0 0.00 0.00 0.00 76 1016.5
20260502025740 43 102 0.0 0.0 0.00 0.00 0.00 76 1016.5
20260502025238 43 108 0.0 0.0 0.00 0.00 0.00 76 1016.4
20260502024735 42 120 0.0 0.0 0.00 0.00 0.00 75 1016.4
20260502024233 42 120 0.0 0.0 0.00 0.00 0.00 76 1016.4
20260502023731 42 120 0.0 0.0 0.00 0.00 0.00 77 1016.3
20260502023228 42 120 0.0 0.0 0.00 0.00 0.00 78 1016.4
20260502022726 41 120 0.0 0.0 0.00 0.00 0.00 78 1016.1
20260502022222 41 120 0.0 0.0 0.00 0.00 0.00 78 1016.3
20260502021719 42 119 0.0 0.0 0.00 0.00 0.00 78 1016.2
20260502021216 42 119 0.0 0.0 0.00 0.00 0.00 77 1016.0
20260502020713 43 100 0.0 0.0 0.00 0.00 0.00 76 1015.8
20260502020210 43 113 0.0 0.0 0.00 0.00 0.00 75 1016.1
20260502015709 44 113 0.0 0.0 0.00 0.00 0.00 75 1015.9
20260502015204 44 114 0.0 0.0 0.00 0.00 0.00 74 1015.8
20260502014702 44 108 0.0 0.0 0.00 0.00 0.00 74 1015.8
20260502014159 44 114 0.0 0.0 0.00 0.00 0.00 73 1015.6
20260502013655 44 78 0.0 0.0 0.00 0.00 0.00 72 1015.6